Regional Weather Roundup
Issued by NWS

Home | Current Version | Previous Version | Text Only | Print | Product List | Glossary Off
Versions: 1 2 3 4 5 6 7 8 9 10 11 12 13 14 15 16 17 18 19 20 21 22 23 24 25 26 27 28 29 30 31 32 33 34 35 36 37 38 39 40 41 42 43 44 45 46 47 48 49 50

567
ASUS43 KLMK 191110
RWRKY
KENTUCKY REGIONAL WEATHER ROUNDUP
NATIONAL WEATHER SERVICE LOUISVILLE KY
700 AM EDT THU APR 19 2018

NOTE "FAIR" INDICATES FEW OR NO CLOUDS BELOW 12,000 FEET
WITH NO SIGNIFICANT WEATHER AND/OR OBSTRUCTIONS TO VISIBILITY.

KYZ001>023-026-027-061>063-070>075-191200-
WESTERN AND SOUTH CENTRAL KENTUCKY

CITY           SKY/WX    TMP DP  RH WIND       PRES   REMARKS
PADUCAH        CLOUDY    41  22  46 N14G21    30.18R
HENDERSON      CLOUDY    39  26  59 NW17G23   30.18R WCI  30
OWENSBORO      CLOUDY    39  26  59 NW14G21   30.16R WCI  31
HOPKINSVILLE   CLOUDY    41  25  53 NW13G21   30.14R
BOWLING GREEN  CLOUDY    43  29  57 NW6       30.12R
GLASGOW        CLOUDY    40  28  60 NW12G21   30.10R WCI  33
$$

KYZ024-025-028>034-038-045-046-053-191200-
NORTH CENTRAL KENTUCKY

CITY           SKY/WX    TMP DP  RH WIND       PRES   REMARKS
LOUISVILLE/SDF CLOUDY    40  27  59 NW20G32   30.09R WCI  30
LOUISVILLE/LOU CLOUDY    40  28  62 NW9G22    30.09R WCI  34
FORT KNOX      MOCLDY    37  24  60 W12       30.10R WCI  29
$$

KYZ035>037-039>044-047>052-055>060-089>105-191200-
NORTHEAST KENTUCKY

CITY           SKY/WX    TMP DP  RH WIND       PRES   REMARKS
LEXINGTON      CLOUDY    39  27  62 W16G24    30.04R WCI  30
COVINGTON      CLOUDY    38  28  67 NW17G26   30.00R WCI  28
FRANKFORT      CLOUDY    39  25  57 W9G20     30.04R WCI  33
$$

KYZ054-064>069-076>088-106>120-191200-
SOUTHEAST KENTUCKY

CITY           SKY/WX    TMP DP  RH WIND       PRES   REMARKS
JACKSON        CLOUDY    41  30  65 W9G28     29.98R
LONDON         CLOUDY    42  33  70 NW14      30.01R
SOMERSET       CLOUDY    41  30  65 N13       30.06R
MIDDLESBORO    CLOUDY    47  36  65 W8G16     29.99R
MONTICELLO     CLOUDY    42  32  67 NW15      30.07R
$$





USA.gov is the U.S. government's official web portal to all federal, state and local government web resources and services.